Regional Weather Roundup
Issued by NWS

Home | Current Version | Previous Version | Graphics & Text | Print | Product List | Glossary On
Versions: 1 2 3 4 5 6 7 8 9 10 11 12 13 14 15 16 17 18 19 20 21 22 23 24 25 26 27 28 29 30 31 32 33 34 35 36 37 38 39 40 41 42 43 44 45 46 47 48 49 50
000
ASUS43 KOAX 301302
RWRNE

WEATHER ROUNDUP FOR NEBRASKA
NATIONAL WEATHER SERVICE OMAHA NE
800 AM CDT SUN APR 30 2017

NOTES: SATELLITE DATA IS BEING USED TO AUGMENT CLOUD COVER ABOVE
       12000 FEET.
       "FAIR" INDICATES FEW OR NO CLOUDS BELOW 12,000 FEET WITH NO
       SIGNIFICANT WEATHER AND/OR OBSTRUCTIONS TO VISIBILITY.

  * THESE STATIONS DO NOT REPORT WEATHER SUCH AS RAIN...SNOW OR FOG.

NEZ001>004-019>022-054>056-301400-
NEBRASKA PANHANDLE

CITY           SKY/WX    TMP DP  RH WIND       PRES   REMARKS
SCOTTSBLUFF    CLOUDY    30  23  75 NW10      30.02F WCI  21
ALLIANCE       CLOUDY    32  25  75 N13       29.98F WCI  22
CHADRON        CLOUDY    29  25  85 SW5       30.06F WCI  24
KIMBALL        CLOUDY    33  21  61 NW18G24   29.97F WCI  22
SIDNEY         CLOUDY    34  22  61 N21G26    29.95F WCI  22
$$

NEZ057>060-069>072-079>082-301400-
SOUTHWEST NEBRASKA

CITY           SKY/WX    TMP DP  RH WIND       PRES   REMARKS
NORTH PLATTE   CLOUDY    40  25  55 N21G35    29.83F WCI  30
IMPERIAL       CLOUDY    37  24  59 N30       29.82F WCI  24
LEXINGTON      LGT SNOW  34  32  93 N23       29.75F VSB 3/4 WCI  22
MCCOOK         SNOW      33  32  96 N31G41    29.69F VSB 1/2 WCI  19
OGALLALA       CLOUDY    39  26  58 N23G29    29.89F WCI  29
$$

NEZ005>010-023>029-035>040-094-301400-
NORTH CENTRAL NEBRASKA

CITY           SKY/WX    TMP DP  RH WIND       PRES   REMARKS
VALENTINE      CLOUDY    40  21  46 N14       30.01F WCI  32
AINSWORTH      PTSUNNY   37  27  67 N16G23    29.96F WCI  27
BROKEN BOW     CLOUDY    40  27  59 N23G39    29.81F WCI  30
O`NEILL        CLOUDY    41  26  55 N16       29.93F
ORD            LGT RAIN  36  33  89 N18G28    29.81F WCI  26
THEDFORD       PTSUNNY   39  26  58 N16G25    29.90F WCI  30
$$

NEZ041-046>049-061>064-073>077-083>087-301400-
SOUTH CENTRAL NEBRASKA

CITY           SKY/WX    TMP DP  RH WIND       PRES   REMARKS
GRAND ISLAND   HVY RAIN  35  35 100 N25G36    29.75S FOG     WCI  23
AURORA         HVY RAIN  37  36  96 N23       29.77R WCI  26
HASTINGS       LGT RAIN  36  34  92 NE25G41   29.69F FOG     WCI  24
HEBRON         LGT RAIN  37  36  98 NE39G49   29.56F WCI  22
HOLDREGE       LGT RAIN  33  32  96 N36G43    29.66F WCI  18
KEARNEY *      CLOUDY    34  30  86 N32G39    29.69F WCI  20
YORK           LGT RAIN  37  37 100 NE24      29.77R WCI  26
$$

NEZ011>018-030>034-042>045-301400-
NORTHEAST NEBRASKA

CITY           SKY/WX    TMP DP  RH WIND       PRES   REMARKS
NORFOLK        LGT RAIN  37  34  89 N17       29.84S WCI  27
ALBION         LGT RAIN  37  34  89 N18G25    29.82F WCI  26
BLAIR          LGT RAIN  38  37  95 NE22G31   29.74F WCI  28
FREMONT        LGT RAIN  39  38  99 NE15G22   29.78F WCI  30
TEKAMAH        LGT RAIN  39  37  92 NE20      29.79F FOG     WCI  29
WAYNE          LGT RAIN  38  38  99 N18G24    29.86F WCI  29
$$

NEZ050>053-065>068-078-088>093-301400-
SOUTHEAST NEBRASKA

CITY           SKY/WX    TMP DP  RH WIND       PRES   REMARKS
LINCOLN        LGT RAIN  39  37  92 NE20G26   29.77R FOG     WCI  29
OMAHA EPPLEY   DRIZZLE   40  35  83 NE16G31   29.76F WCI  31
BEATRICE       RAIN      39  38  97 NE15G24   29.69R WCI  30
FALLS CITY     HVY RAIN  41  40  96 NE15G22   29.67F FOG
NEBRASKA CITY  RAIN      39  39 100 NE12      29.76R WCI  32
PLATTSMOUTH    LGT RAIN  39  36  89 NE16G22   29.73R WCI  30
$$

NEZ044-045-051>053-067-301400-
OMAHA AREA

CITY           SKY/WX    TMP DP  RH WIND       PRES   REMARKS
OMAHA EPPLEY   DRIZZLE   40  35  83 NE16G31   29.76F WCI  31
BLAIR          LGT RAIN  38  37  95 NE22G31   29.74F WCI  28
FREMONT        LGT RAIN  39  38  99 NE15G22   29.78F WCI  30
MILLARD        DRIZZLE   41  38  91 N8G20     29.76F
OFFUTT AFB     LGT RAIN  39  37  90 NE15G24   29.73F WCI  31
PLATTSMOUTH    LGT RAIN  39  36  89 NE16G22   29.73R WCI  30
WAHOO          LGT RAIN  38  37  93 NE24G30   29.76S WCI  27
$$



USA.gov is the U.S. government's official web portal to all federal, state and local government web resources and services.